ASTRA 3B

Last updated on Sun Oct 06 2024 00:02:39 GMT+0000 (Coordinated Universal Time)

1 36581U 10021A 24278.37202019 .00000145 00000+0 00000+0 0 9992 2 36581 0.0363 65.5798 0003361 117.2436 348.1674 1.00273636 52653
UTC large
Height (km)
Speed (km/s)
/
Latitude / Longitude
Inclination (degrees)
Orbital Period (minutes)
Azimuth
Elevation
Range (km)
Doppler Factor

Next 0 passes for location: London (51.5072 / 0.1276)

Sorry there are no passes over London.